Home > Time Zones > World Clock > Weather > Palau > Koror > Past weeks

Flag for Palau Weather past 2 weeks in Koror, Palau

Now
86 °F

Broken clouds.


Feels Like: 97 °F
Forecast: 79 / 87 °F
Wind: No wind

Location: Koror / Palau Island

Current Time: Oct 21, 2014 at 2:41:40 PM

Latest Report: Oct 21, 2014 at 1:54 PM


Visibility: 15 mi

Pressure: 29.82 "Hg

Humidity: 75%

Dew point: 77 °F

Location of KororLocation

Historic Weather in Koror — Graph

°F

Koror temperature yesterday

Maximum temperature yesterday: 86 °F (at 8:50 AM)
Minimum temperature yesterday: 77 °F (at 12:51 AM)
Average temperature yesterday: 80 °F

Past Weeks' High & Low Weather Summary

 TemperatureHumidityPressure
High88 °F (Oct 8, 11:50 AM)100% (Oct 12, 10:50 PM)29.93 "Hg (Oct 12, 10:50 PM)
Low73 °F (Oct 13, 5:51 AM)66% (Oct 18, 1:55 PM)29.66 "Hg (Oct 7, 2:50 PM)
Average81 °F86%29.82 "Hg
* Reported Oct 6 11:50 AM — Oct 21 11:55 AM, Koror, Weather by CustomWeather, © 2014

Note: Actual official high and low records may vary slightly from our data, if they occured in-between our weather recording intervals... More about our weather records

Advertising

Koror weather history for previous 24 hours

 ConditionsComfort  
Time TempWeatherWind HumidityBarometerVisibility
11:55 AM
Oct 21
79 °FSprinkles. Mostly cloudy.7 mph94%29.88 "Hg7 mi
10:53 AM81 °FRain showers. Mostly cloudy.3 mph94%29.90 "Hg6 mi
9:50 AM86 °FBroken clouds.5 mph75%29.90 "Hg15 mi
8:50 AM84 °FBroken clouds.3 mph84%29.90 "Hg15 mi
7:50 AM84 °FBroken clouds.No wind84%29.89 "Hg15 mi
6:51 AM79 °FBroken clouds.No wind94%29.88 "Hg15 mi
5:54 AM79 °FBroken clouds.No wind94%29.86 "Hg15 mi
4:52 AM79 °FPartly cloudy.No wind94%29.86 "Hg15 mi
3:53 AM77 °FPassing clouds.No wind94%29.84 "Hg15 mi
2:52 AM79 °FPartly cloudy.No wind94%29.84 "Hg14 mi
1:55 AM79 °FPartly cloudy.No wind94%29.85 "Hg14 mi
12:54 AM77 °FPartly cloudy.No wind94%29.87 "Hg14 mi
11:54 PM
Oct 20
77 °FPartly cloudy.No wind94%29.88 "Hg14 mi
10:50 PM79 °FPartly cloudy.No wind94%29.90 "Hg14 mi
9:53 PM79 °FPartly cloudy.No wind94%29.91 "Hg14 mi
8:50 PM79 °FPartly cloudy.No wind94%29.89 "Hg14 mi
7:50 PM79 °FPartly cloudy.No wind94%29.88 "Hg14 mi
6:50 PM79 °FPartly cloudy.No wind94%29.86 "Hg14 mi
5:50 PM82 °FPartly cloudy.No wind89%29.84 "Hg14 mi
4:50 PM82 °FBroken clouds.No wind89%29.82 "Hg14 mi
3:50 PM82 °FSprinkles. Mostly cloudy.No wind89%29.81 "Hg11 mi
2:50 PM82 °FPartly sunny.3 mph89%29.80 "Hg14 mi
Weather by CustomWeather, © 2014

See weather overviewHow to use our weather pages